Billings, MT

1:37 PM MDT on October 18, 2017 (GMT -0600)
Billings Logan International

Weather History for KBIL - July, 2014

Change the Weather History Date:

Saturday, July 26, 2014

  Actual Average Record
Temperature  
Mean Temperature 71 °F 74 °F  
Max Temperature 87 °F 89 °F 100 °F (1959)
Min Temperature 54 °F 60 °F 48 °F (1971)
Degree Days  
Heating Degree Days 0 0  
Month to date heating degree days 1 12  
Since 1 June heating degree days 90 108  
Since 1 July heating degree days 1 12  
Cooling Degree Days 6 10  
Month to date cooling degree days 250 208  
Year to date cooling degree days 285 310  
Since 1 June cooling degree days 269 293  
Growing Degree Days 21 (Base 50)    
Moisture  
Dew Point 35 °F    
Average Humidity 30    
Maximum Humidity 47    
Minimum Humidity 13    
Precipitation  
Precipitation 0.00 in 0.03 in 1.25 in (1993)
Month to date precipitation 0.34 1.14  
Year to date precipitation 9.92 9.12  
Snow  
Snow 0.00 in 0.00 in 0.00 in (2002)
Month to date snowfall 0.0 0.0  
Since 1 June snowfall T 0.0  
Since 1 July snowfall 0.0 0.0  
Snow Depth 0.00 in    
Sea Level Pressure  
Sea Level Pressure 30.05 in    
Wind  
Wind Speed 9 mph (NNW)    
Max Wind Speed 22 mph    
Max Gust Speed 27 mph    
Visibility 10 miles    
Events      
T = Trace of Precipitation, MM = Missing Value Source: NWS Daily Summary

Daily Weather History Graph

Daily Weather History Graph

Search for Another Location

Airport or City:

Trip Planner

Search our weather history database for the weather conditions in past years. The results will help you decide how hot, cold, wet, or windy it might be!

Date:

Astronomy

Jul. 26, 2014 Rise Set
Actual Time 5:50 AM MDT 8:50 PM MDT
Civil Twilight 5:15 AM MDT 9:25 PM MDT
Nautical Twilight 4:29 AM MDT 10:10 PM MDT
Astronomical Twilight 3:35 AM MDT 11:04 PM MDT
Moon 5:49 AM MDT (7/26) 8:21 PM MDT (7/26)
Length of Visible Light 16h 10m
Length of Day
14h 59m
Waning Crescent, 0% of the Moon is Illuminated
Jul 26
Waning Crescent
Jul 26
New
Aug 3
First Quarter
Aug 10
Full
Aug 17
Last Quarter

Hourly Weather History & Observations

Time (MDT) Temp. Dew Point Humidity Pressure Visibility Wind Dir Wind Speed Gust Speed Precip Events Conditions
12:53 AM 70.0 °F 30.9 °F 24% 29.94 in 10.0 mi North 3.5 mph - N/A   Clear
1:53 AM 64.0 °F 30.9 °F 29% 29.96 in 10.0 mi NW 6.9 mph - N/A   Clear
2:53 AM 62.1 °F 32.0 °F 32% 29.97 in 10.0 mi WNW 10.4 mph - N/A   Clear
3:53 AM 60.1 °F 33.1 °F 36% 29.99 in 10.0 mi NNW 8.1 mph - N/A   Clear
4:53 AM 55.9 °F 34.0 °F 44% 30.01 in 10.0 mi NW 3.5 mph - N/A   Clear
5:53 AM 55.0 °F 35.1 °F 47% 30.03 in 10.0 mi NW 8.1 mph - N/A   Clear
6:53 AM 60.1 °F 36.0 °F 41% 30.05 in 10.0 mi WNW 3.5 mph - N/A   Clear
7:53 AM 60.1 °F 39.9 °F 47% 30.07 in 10.0 mi SSW 6.9 mph - N/A   Clear
9:53 AM 69.1 °F 39.9 °F 35% 30.06 in 10.0 mi SW 5.8 mph - N/A   Partly Cloudy
12:53 PM 80.1 °F 35.1 °F 20% 30.04 in 10.0 mi Variable 4.6 mph - N/A   Partly Cloudy
1:53 PM 82.9 °F 32.0 °F 16% 30.04 in 10.0 mi North 11.5 mph 18.4 mph N/A   Partly Cloudy
2:53 PM 86.0 °F 30.9 °F 14% 30.02 in 10.0 mi NNW 13.8 mph 20.7 mph N/A   Partly Cloudy
3:53 PM 86.0 °F 32.0 °F 14% 30.02 in 10.0 mi NNW 15.0 mph 21.9 mph N/A   Partly Cloudy
4:31 PM 84.9 °F 33.1 °F 16% 30.12 in 10.0 mi North 11.5 mph 21.9 mph N/A   Partly Cloudy
4:53 PM 84.9 °F 33.1 °F 16% 30.04 in 10.0 mi North 11.5 mph 19.6 mph N/A   Partly Cloudy
5:53 PM 84.9 °F 33.1 °F 16% 30.04 in 10.0 mi NNW 17.3 mph 26.5 mph N/A   Partly Cloudy
6:53 PM 82.9 °F 32.0 °F 16% 30.05 in 10.0 mi NNE 11.5 mph - N/A   Clear
7:53 PM 81.0 °F 33.1 °F 18% 30.07 in 10.0 mi North 11.5 mph - N/A   Clear
8:53 PM 73.9 °F 42.1 °F 32% 30.12 in 10.0 mi ENE 10.4 mph - N/A   Clear
9:53 PM 71.1 °F 39.9 °F 32% 30.15 in 10.0 mi ENE 10.4 mph - N/A   Clear
10:53 PM 66.9 °F 41.0 °F 39% 30.17 in 10.0 mi NE 6.9 mph - N/A   Clear
11:53 PM 66.0 °F 39.0 °F 37% 30.18 in 10.0 mi NNE 5.8 mph - N/A   Clear